W6CX Weather Reports


time (UTC)temp
C
wind
direction
speed
KPH
gust
KPH
rain 1hr
cm
rain 24hr
cm
rain mn
cm
humidity
%
barometer
mb
20260506233051 16 223 6.4 14.5 0.00 0.00 0.00 72 1022.1
20260506231554 16 151 4.8 11.3 0.00 0.00 0.00 72 1022.3
20260506224549 16 133 3.2 8.0 0.00 0.00 0.00 71 1022.5
20260506223050 17 231 1.6 9.7 0.00 0.00 0.00 69 1022.8
20260506221550 17 196 3.2 9.7 0.00 0.00 0.00 65 1023.0
20260506220053 18 345 1.6 6.4 0.00 0.00 0.00 67 1023.2
20260506214548 18 138 1.6 9.7 0.00 0.00 0.00 68 1023.2
20260506213050 17 323 1.6 6.4 0.00 0.00 0.00 69 1023.3
20260506211551 17 120 1.6 9.7 0.00 0.00 0.00 68 1023.3
20260506210049 17 123 1.6 8.0 0.00 0.00 0.00 71 1023.4
20260506204553 17 15 3.2 11.3 0.00 0.00 0.00 70 1023.2
20260506203048 16 118 4.8 9.7 0.00 0.00 0.00 73 1023.5
20260506201552 16 124 1.6 8.0 0.00 0.00 0.00 74 1023.6
20260506200050 16 139 1.6 12.9 0.00 0.00 0.00 72 1023.7
20260506194550 16 176 1.6 8.0 0.00 0.00 0.00 72 1023.7
20260506193046 16 276 1.6 8.0 0.00 0.00 0.00 74 1023.6
20260506191547 15 103 3.2 9.7 0.00 0.00 0.00 77 1023.7
20260506190049 15 102 1.6 8.0 0.00 0.00 0.00 76 1023.9
20260506184550 13 67 3.2 8.0 0.00 0.00 0.00 79 1023.8
20260506183051 13 141 0.0 8.0 0.00 0.00 0.00 79 1023.7
20260506181549 13 255 0.0 9.7 0.00 0.00 0.00 78 1023.6
20260506180051 14 106 3.2 9.7 0.00 0.00 0.00 78 1023.5
20260506174555 14 75 0.0 11.3 0.00 0.00 0.00 79 1023.4
20260506173123 13 88 1.6 8.0 0.00 0.00 0.00 82 1023.4
20260506171549 13 110 1.6 9.7 0.00 0.00 0.00 83 1023.2
20260506170049 13 114 0.0 3.2 0.00 0.00 0.00 83 1023.0
20260506164555 12 96 0.0 9.7 0.00 0.03 0.00 84 1023.0
20260506163055 12 0 0.0 6.4 0.00 0.03 0.00 85 1023.0
20260506161554 12 86 0.0 1.6 0.00 0.03 0.00 86 1022.9
20260506160046 11 99 0.0 6.4 0.00 0.03 0.00 87 1022.8
20260506154551 10 0 0.0 3.2 0.00 0.03 0.00 89 1022.8
20260506153047 10 0 0.0 9.7 0.00 0.03 0.00 89 1022.9
20260506151550 10 0 0.0 3.2 0.00 0.03 0.00 89 1022.8
20260506150047 10 0 0.0 1.6 0.00 0.03 0.00 89 1022.6
20260506144547 10 0 0.0 4.8 0.00 0.03 0.00 90 1022.5
20260506143050 9 109 1.6 8.0 0.00 0.03 0.00 92 1022.3
20260506141549 8 113 1.6 8.0 0.00 0.03 0.00 92 1022.1
20260506140049 8 338 0.0 11.3 0.00 0.03 0.00 92 1022.0
20260506134545 8 120 3.2 17.7 0.00 0.03 0.00 92 1021.8
20260506133046 8 70 6.4 17.7 0.00 0.03 0.00 92 1021.6
20260506131550 7 360 9.7 19.3 0.00 0.03 0.00 92 1021.5
20260506130058 7 350 14.5 19.3 0.00 0.03 0.00 91 1021.4
20260506124554 8 32 8.0 17.7 0.00 0.03 0.00 91 1021.4
20260506123050 8 330 9.7 14.5 0.00 0.03 0.00 90 1021.4
20260506121547 8 18 3.2 8.0 0.00 0.03 0.00 90 1021.4
20260506120052 8 0 0.0 4.8 0.00 0.03 0.00 91 1021.3
20260506114550 8 0 0.0 3.2 0.00 0.05 0.00 92 1021.3
20260506113054 8 20 0.0 6.4 0.00 0.05 0.00 94 1021.1
20260506111549 8 27 0.0 4.8 0.00 0.05 0.00 95 1021.0
20260506110055 8 0 0.0 6.4 0.00 0.05 0.00 96 1020.8
20260506104553 8 0 0.0 4.8 0.00 0.10 0.00 96 1020.8
20260506103049 8 0 0.0 1.6 0.00 0.10 0.00 95 1020.8
20260506101552 7 97 0.0 3.2 0.00 0.10 0.00 95 1020.7
20260506094550 7 123 3.2 6.4 0.00 0.10 0.00 95 1020.6
20260506093049 7 104 1.6 6.4 0.00 0.10 0.00 96 1020.6
20260506091547 8 77 1.6 9.7 0.00 0.10 0.00 96 1020.6
20260506090052 8 0 0.0 1.6 0.00 0.10 0.00 96 1020.6
20260506084619 8 0 0.0 0.0 0.00 0.25 0.00 96 1020.7
20260506083046 8 0 0.0 3.2 0.00 0.25 0.00 96 1020.7
20260506081555 7 137 0.0 6.4 0.00 0.25 0.00 96 1020.8
20260506073051 7 0 0.0 1.6 0.00 0.33 0.00 96 1020.5
20260506071545 7 0 0.0 3.2 0.00 0.33 0.00 96 1020.5
20260506061548 7 0 0.0 3.2 0.00 0.38 0.33 96 1019.9
20260506044637 7 123 3.2 6.4 0.00 0.38 0.33 95 1019.6
20260506043049 7 125 1.6 4.8 0.00 0.38 0.33 95 1019.4
20260506041558 7 128 0.0 1.6 0.00 0.38 0.33 95 1019.0
20260506040050 8 0 0.0 0.0 0.00 0.38 0.33 95 1018.9
20260506034621 8 0 0.0 1.6 0.00 0.38 0.33 95 1018.9
20260506033043 8 0 0.0 3.2 0.00 0.38 0.33 95 1018.8
20260506031545 8 0 0.0 1.6 0.00 0.38 0.33 95 1018.4
20260506030051 8 0 0.0 0.0 0.00 0.38 0.33 95 1018.4
20260506024550 8 0 0.0 0.0 0.00 0.38 0.33 95 1018.2
20260506023104 8 0 0.0 0.0 0.00 0.38 0.33 94 1018.1
20260506021544 8 0 0.0 3.2 0.00 0.38 0.33 94 1018.0
20260506020048 8 0 0.0 0.0 0.00 0.38 0.33 94 1018.1
20260506014549 8 0 0.0 1.6 0.00 0.38 0.33 94 1017.8
20260506013049 8 0 0.0 1.6 0.00 0.38 0.33 94 1017.7
20260506011606 9 0 0.0 3.2 0.00 0.38 0.33 94 1017.8
20260506010054 9 0 0.0 4.8 0.00 0.38 0.33 93 1017.8
20260506004611 10 309 0.0 6.4 0.00 0.38 0.33 93 1017.8
20260506003103 9 0 1.6 4.8 0.00 0.38 0.33 93 1017.6
20260506001554 9 0 1.6 3.2 0.00 0.38 0.33 94 1017.6
20260506000050 9 27 0.0 3.2 0.00 0.38 0.33 94 1017.5
20260505234604 8 299 3.2 8.0 0.00 0.38 0.33 93 1017.6